User: anonymous   Login
Location: Unspecified
(0.0000°N, 0.0000°E)
Time: 18:08:31
(UTC+01:00)
Language:

Transit 2A - Orbit

View from above orbital plane
View from above orbital plane
View from above satellite
View from above satellite

Ground track
Ground track

The orbit data is extracted from the following two-line orbital elements,

1    45U 60007A   17344.90136379 -.00000057 +00000-0 +12889-4 0  9994
2    45 066.6950 283.9794 0262939 265.0796 092.0241 14.33581633990891
Epoch (UTC): 10 December 2017 21:37:57
Eccentricity: 0.0262939
inclination: 66.6950°
perigee height: 591 km
apogee height: 968 km
right ascension of ascending node: 283.9794°
argument of perigee: 265.0796°
revolutions per day: 14.33581633
mean anomaly at epoch: 92.0241°
orbit number at epoch: 99089

The dashed part of the orbit path shows where the satellite is in the earth's shadow,  

DLR